• In Hungary
  • List of Countries
  • For 7 days
  • Water Temperature
  • Satellite Maps
  • Weather Map
  • News
  • Weather Widgets
  • user-avatar
    Login

    Hourly Weather Ujezdziec

    Today, 16 July, Monday

    Time Temperature Precipitation Wind Pressure Humidity
    00:00 +16°C° 0 mm 1 mps 740 mmHg 79%
    01:00 +16°C° 0 mm 1 mps 740 mmHg 76%
    02:00 +16°C° 0 mm 1 mps 739 mmHg 76%
    03:00 +15°C° 0 mm 1 mps 739 mmHg 76%
    04:00 +15°C° 0 mm 1 mps 739 mmHg 76%
    05:00 +18°C° 0 mm 1 mps 739 mmHg 73%
    06:00 +19°C° 0 mm 1 mps 739 mmHg 70%
    07:00 +20°C° 0 mm 2 mps 739 mmHg 68%
    08:00 +23°C° 0 mm 2 mps 739 mmHg 64%
    09:00 +24°C° 0 mm 2 mps 739 mmHg 60%
    10:00 +25°C° 0 mm 3 mps 739 mmHg 56%
    11:00 +26°C° 0 mm 3 mps 739 mmHg 54%
    12:00 +27°C° 0 mm 3 mps 738 mmHg 52%
    13:00 +27°C° 0 mm 3 mps 738 mmHg 50%
    14:00 +27°C° 0.1 mm 3 mps 738 mmHg 51%
    15:00 +27°C° 0.1 mm 3 mps 738 mmHg 53%
    16:00 +27°C° 0.1 mm 3 mps 737 mmHg 54%
    17:00 +26°C° 0.1 mm 2 mps 737 mmHg 61%
    18:00 +24°C° 0.1 mm 2 mps 737 mmHg 68%
    19:00 +23°C° 0.1 mm 1 mps 736 mmHg 75%
    20:00 +22°C° 0.1 mm 1 mps 736 mmHg 77%
    21:00 +21°C° 0.1 mm 1 mps 736 mmHg 79%
    22:00 +19°C° 0.1 mm 1 mps 736 mmHg 82%
    23:00 +19°C° 0.1 mm 1 mps 736 mmHg 83%

    Tomorrow, 17 July, Tuesday

    Time Temperature Precipitation Wind Pressure Humidity
    00:00 +17°C° 0.1 mm 2 mps 736 mmHg 84%
    01:00 +17°C° 0.1 mm 2 mps 736 mmHg 86%
    02:00 +17°C° 0 mm 2 mps 736 mmHg 87%
    03:00 +16°C° 0 mm 2 mps 736 mmHg 88%
    04:00 +16°C° 0 mm 2 mps 736 mmHg 88%
    05:00 +17°C° 0 mm 3 mps 736 mmHg 86%
    06:00 +19°C° 0 mm 3 mps 736 mmHg 83%
    07:00 +20°C° 0 mm 4 mps 736 mmHg 81%
    08:00 +20°C° 0.3 mm 4 mps 736 mmHg 80%
    09:00 +21°C° 0.3 mm 5 mps 736 mmHg 79%
    10:00 +21°C° 0.3 mm 5 mps 736 mmHg 78%
    11:00 +21°C° 0.4 mm 6 mps 736 mmHg 78%
    12:00 +21°C° 0.4 mm 6 mps 736 mmHg 77%
    13:00 +21°C° 0.4 mm 7 mps 736 mmHg 76%
    14:00 +21°C° 0.2 mm 7 mps 736 mmHg 76%
    15:00 +21°C° 0.2 mm 7 mps 736 mmHg 76%
    16:00 +21°C° 0.2 mm 7 mps 736 mmHg 76%
    17:00 +20°C° 0.1 mm 6 mps 736 mmHg 79%
    18:00 +19°C° 0.1 mm 5 mps 736 mmHg 82%
    19:00 +18°C° 0.1 mm 4 mps 736 mmHg 85%
    20:00 +18°C° 0 mm 4 mps 736 mmHg 87%
    21:00 +17°C° 0 mm 4 mps 736 mmHg 88%
    22:00 +17°C° 0 mm 4 mps 736 mmHg 90%
    23:00 +17°C° 0 mm 4 mps 736 mmHg 91%

    Day after tomorrow, 18 July, Wednesday

    Time Temperature Precipitation Wind Pressure Humidity
    00:00 +17°C° 0 mm 4 mps 736 mmHg 91%
    01:00 +15°C° 0 mm 4 mps 736 mmHg 91%
    02:00 +17°C° 0.1 mm 4 mps 736 mmHg 92%
    03:00 +17°C° 0.1 mm 4 mps 736 mmHg 92%
    04:00 +17°C° 0.1 mm 4 mps 736 mmHg 92%
    05:00 +16°C° 0.4 mm 5 mps 736 mmHg 91%
    06:00 +16°C° 0.4 mm 5 mps 736 mmHg 91%
    07:00 +17°C° 0.4 mm 5 mps 736 mmHg 90%
    08:00 +17°C° 0.8 mm 5 mps 737 mmHg 88%
    09:00 +19°C° 0.8 mm 6 mps 737 mmHg 86%
    10:00 +19°C° 0.8 mm 6 mps 737 mmHg 84%
    11:00 +19°C° 0.9 mm 6 mps 737 mmHg 84%
    12:00 +20°C° 0.9 mm 5 mps 737 mmHg 84%
    13:00 +20°C° 0.9 mm 5 mps 737 mmHg 85%
    14:00 +20°C° 1 mm 4 mps 737 mmHg 85%
    15:00 +20°C° 1 mm 4 mps 737 mmHg 85%
    16:00 +20°C° 1 mm 4 mps 737 mmHg 85%
    17:00 +20°C° 0.4 mm 4 mps 737 mmHg 86%
    18:00 +20°C° 0.4 mm 3 mps 737 mmHg 88%
    19:00 +19°C° 0.4 mm 3 mps 737 mmHg 89%
    20:00 +19°C° 0.2 mm 3 mps 738 mmHg 90%
    21:00 +19°C° 0.2 mm 3 mps 738 mmHg 91%
    22:00 +18°C° 0.2 mm 3 mps 738 mmHg 92%
    23:00 +18°C° 0.1 mm 4 mps 738 mmHg 92%

    19 July, Thursday

    Time Temperature Precipitation Wind Pressure Humidity
    00:00 +18°C° 0.1 mm 4 mps 738 mmHg 92%
    01:00 +18°C° 0.1 mm 4 mps 738 mmHg 92%
    02:00 +18°C° 0.1 mm 4 mps 738 mmHg 92%
    03:00 +17°C° 0.1 mm 4 mps 738 mmHg 92%
    04:00 +17°C° 0.1 mm 4 mps 738 mmHg 93%
    05:00 +16°C° 0.1 mm 5 mps 738 mmHg 91%
    06:00 +17°C° 0.1 mm 5 mps 738 mmHg 90%
    07:00 +17°C° 0.1 mm 6 mps 738 mmHg 89%
    08:00 +19°C° 0.3 mm 6 mps 739 mmHg 87%
    09:00 +19°C° 0.3 mm 6 mps 739 mmHg 85%
    10:00 +19°C° 0.3 mm 6 mps 739 mmHg 83%
    11:00 +20°C° 0.4 mm 5 mps 739 mmHg 81%
    12:00 +20°C° 0.4 mm 5 mps 739 mmHg 79%
    13:00 +21°C° 0.4 mm 5 mps 739 mmHg 77%
    14:00 +21°C° 0.1 mm 5 mps 739 mmHg 75%
    15:00 +22°C° 0.1 mm 4 mps 739 mmHg 73%
    16:00 +23°C° 0.1 mm 4 mps 739 mmHg 71%
    17:00 +22°C° 0 mm 3 mps 739 mmHg 75%
    18:00 +21°C° 0 mm 3 mps 739 mmHg 78%
    19:00 +20°C° 0 mm 2 mps 739 mmHg 82%
    20:00 +19°C° 0 mm 2 mps 739 mmHg 85%
    21:00 +18°C° 0 mm 2 mps 740 mmHg 88%
    22:00 +17°C° 0 mm 2 mps 740 mmHg 91%
    23:00 +17°C° 0 mm 2 mps 740 mmHg 92%

    20 July, Friday

    Time Temperature Precipitation Wind Pressure Humidity
    00:00 +17°C° 0 mm 2 mps 740 mmHg 93%
    01:00 +16°C° 0 mm 2 mps 740 mmHg 93%
    02:00 +16°C° 0 mm 2 mps 739 mmHg 93%
    03:00 +15°C° 0 mm 2 mps 739 mmHg 92%
    04:00 +15°C° 0 mm 2 mps 739 mmHg 91%
    05:00 +16°C° 0 mm 2 mps 739 mmHg 85%
    06:00 +17°C° 0 mm 2 mps 739 mmHg 79%
    07:00 +19°C° 0 mm 3 mps 739 mmHg 73%
    08:00 +20°C° 0 mm 3 mps 739 mmHg 66%
    09:00 +21°C° 0 mm 3 mps 740 mmHg 59%
    10:00 +24°C° 0 mm 3 mps 740 mmHg 52%
    11:00 +24°C° 0 mm 3 mps 739 mmHg 50%
    12:00 +25°C° 0 mm 2 mps 739 mmHg 47%
    13:00 +26°C° 0 mm 2 mps 739 mmHg 44%
    14:00 +26°C° 0 mm 2 mps 739 mmHg 44%
    15:00 +26°C° 0 mm 2 mps 738 mmHg 45%
    16:00 +26°C° 0 mm 2 mps 738 mmHg 45%
    17:00 +25°C° 0 mm 2 mps 738 mmHg 51%
    18:00 +23°C° 0 mm 1 mps 738 mmHg 58%
    19:00 +22°C° 0 mm 1 mps 737 mmHg 64%
    20:00 +21°C° 0 mm 1 mps 738 mmHg 66%
    21:00 +19°C° 0 mm 1 mps 738 mmHg 68%
    22:00 +18°C° 0 mm 1 mps 738 mmHg 71%
    23:00 +16°C° 0 mm 1 mps 738 mmHg 71%

    21 July, Saturday

    Time Temperature Precipitation Wind Pressure Humidity
    00:00 +16°C° 0 mm 1 mps 738 mmHg 71%
    01:00 +16°C° 0 mm 1 mps 738 mmHg 71%
    02:00 +15°C° 0 mm 1 mps 737 mmHg 71%
    03:00 +15°C° 0 mm 1 mps 737 mmHg 72%
    04:00 +15°C° 0 mm 1 mps 737 mmHg 72%
    05:00 +18°C° 0 mm 1 mps 737 mmHg 69%
    06:00 +19°C° 0 mm 1 mps 737 mmHg 66%
    07:00 +19°C° 0 mm 0 mps 738 mmHg 64%
    08:00 +22°C° 0 mm 1 mps 738 mmHg 61%
    09:00 +24°C° 0 mm 1 mps 737 mmHg 57%
    10:00 +25°C° 0 mm 1 mps 737 mmHg 54%
    11:00 +25°C° 0 mm 1 mps 737 mmHg 52%
    12:00 +26°C° 0 mm 1 mps 737 mmHg 50%
    13:00 +27°C° 0 mm 1 mps 737 mmHg 49%
    14:00 +27°C° 0 mm 1 mps 737 mmHg 49%
    15:00 +27°C° 0 mm 1 mps 737 mmHg 50%
    16:00 +26°C° 0 mm 1 mps 736 mmHg 51%
    17:00 +25°C° 0 mm 1 mps 736 mmHg 57%
    18:00 +24°C° 0 mm 1 mps 736 mmHg 64%
    19:00 +23°C° 0 mm 1 mps 736 mmHg 70%
    20:00 +21°C° 0 mm 1 mps 736 mmHg 74%
    21:00 +20°C° 0 mm 1 mps 736 mmHg 77%
    22:00 +19°C° 0 mm 1 mps 736 mmHg 81%
    23:00 +18°C° 0 mm 1 mps 736 mmHg 82%
    Show more